• In Russia
  • List of Countries
  • For 7 days
  • Water Temperature
  • Satellite Maps
  • Weather Map
  • Weather Widgets
  • user-avatar
    Login

    Hourly Weather Asuan

    Today, 19 January, Saturday

    Time Temperature Precipitation Wind Pressure Humidity
    00:00 +14°C° 0 mm 4 mps 747 mmHg 29%
    01:00 +13°C° 0 mm 4 mps 746 mmHg 31%
    02:00 +13°C° 0 mm 3 mps 746 mmHg 31%
    03:00 +12°C° 0 mm 3 mps 746 mmHg 33%
    04:00 +12°C° 0 mm 3 mps 746 mmHg 35%
    05:00 +11°C° 0 mm 3 mps 746 mmHg 37%
    06:00 +12°C° 0 mm 3 mps 746 mmHg 36%
    07:00 +13°C° 0 mm 3 mps 747 mmHg 34%
    08:00 +15°C° 0 mm 2 mps 747 mmHg 33%
    09:00 +17°C° 0 mm 2 mps 747 mmHg 29%
    10:00 +18°C° 0 mm 2 mps 747 mmHg 25%
    11:00 +20°C° 0 mm 2 mps 747 mmHg 21%
    12:00 +21°C° 0 mm 2 mps 746 mmHg 19%
    13:00 +23°C° 0 mm 2 mps 746 mmHg 16%
    14:00 +24°C° 0 mm 2 mps 745 mmHg 14%
    15:00 +24°C° 0 mm 2 mps 745 mmHg 14%
    16:00 +23°C° 0 mm 2 mps 745 mmHg 15%
    17:00 +23°C° 0 mm 2 mps 745 mmHg 15%
    18:00 +20°C° 0 mm 2 mps 745 mmHg 17%
    19:00 +19°C° 0 mm 2 mps 746 mmHg 19%
    20:00 +18°C° 0 mm 3 mps 746 mmHg 21%
    21:00 +17°C° 0 mm 2 mps 746 mmHg 22%
    22:00 +17°C° 0 mm 2 mps 746 mmHg 23%
    23:00 +16°C° 0 mm 2 mps 746 mmHg 24%

    Tomorrow, 20 January, Sunday

    Time Temperature Precipitation Wind Pressure Humidity
    00:00 +16°C° 0 mm 2 mps 746 mmHg 25%
    01:00 +14°C° 0 mm 3 mps 746 mmHg 26%
    02:00 +14°C° 0 mm 3 mps 746 mmHg 27%
    03:00 +14°C° 0 mm 3 mps 746 mmHg 29%
    04:00 +13°C° 0 mm 3 mps 746 mmHg 31%
    05:00 +13°C° 0 mm 3 mps 746 mmHg 33%
    06:00 +15°C° 0 mm 2 mps 746 mmHg 32%
    07:00 +16°C° 0 mm 2 mps 746 mmHg 30%
    08:00 +17°C° 0 mm 2 mps 746 mmHg 29%
    09:00 +19°C° 0 mm 2 mps 746 mmHg 25%
    10:00 +20°C° 0 mm 2 mps 746 mmHg 21%
    11:00 +23°C° 0 mm 2 mps 746 mmHg 17%
    12:00 +24°C° 0 mm 2 mps 745 mmHg 16%
    13:00 +25°C° 0 mm 1 mps 744 mmHg 15%
    14:00 +26°C° 0 mm 1 mps 744 mmHg 14%
    15:00 +25°C° 0 mm 1 mps 744 mmHg 15%
    16:00 +24°C° 0 mm 1 mps 744 mmHg 15%
    17:00 +23°C° 0 mm 1 mps 743 mmHg 16%
    18:00 +22°C° 0 mm 1 mps 744 mmHg 17%
    19:00 +21°C° 0 mm 1 mps 744 mmHg 19%
    20:00 +19°C° 0 mm 1 mps 745 mmHg 20%
    21:00 +19°C° 0 mm 1 mps 745 mmHg 20%
    22:00 +18°C° 0 mm 2 mps 745 mmHg 20%
    23:00 +18°C° 0 mm 2 mps 745 mmHg 20%

    Day after tomorrow, 21 January, Monday

    Time Temperature Precipitation Wind Pressure Humidity
    00:00 +18°C° 0 mm 2 mps 745 mmHg 20%
    01:00 +17°C° 0 mm 2 mps 744 mmHg 20%
    02:00 +17°C° 0 mm 2 mps 744 mmHg 20%
    03:00 +17°C° 0 mm 3 mps 744 mmHg 21%
    04:00 +17°C° 0 mm 3 mps 744 mmHg 21%
    05:00 +17°C° 0 mm 3 mps 744 mmHg 22%
    06:00 +17°C° 0 mm 3 mps 744 mmHg 22%
    07:00 +18°C° 0 mm 3 mps 745 mmHg 21%
    08:00 +19°C° 0 mm 3 mps 745 mmHg 20%
    09:00 +21°C° 0 mm 3 mps 745 mmHg 19%
    10:00 +24°C° 0 mm 3 mps 745 mmHg 17%
    11:00 +26°C° 0 mm 3 mps 745 mmHg 15%
    12:00 +27°C° 0 mm 2 mps 744 mmHg 15%
    13:00 +27°C° 0 mm 1 mps 744 mmHg 14%
    14:00 +26°C° 0 mm 0 mps 743 mmHg 14%
    15:00 +27°C° 0 mm 1 mps 743 mmHg 14%
    16:00 +26°C° 0 mm 1 mps 743 mmHg 14%
    17:00 +25°C° 0 mm 1 mps 743 mmHg 14%
    18:00 +24°C° 0 mm 1 mps 743 mmHg 15%
    19:00 +23°C° 0 mm 2 mps 744 mmHg 15%
    20:00 +21°C° 0 mm 2 mps 744 mmHg 16%
    21:00 +20°C° 0 mm 2 mps 744 mmHg 16%
    22:00 +20°C° 0 mm 2 mps 744 mmHg 17%
    23:00 +19°C° 0 mm 2 mps 744 mmHg 17%

    22 January, Tuesday

    Time Temperature Precipitation Wind Pressure Humidity
    00:00 +19°C° 0 mm 2 mps 744 mmHg 17%
    01:00 +19°C° 0 mm 2 mps 744 mmHg 17%
    02:00 +19°C° 0 mm 2 mps 744 mmHg 17%
    03:00 +18°C° 0 mm 3 mps 744 mmHg 18%
    04:00 +18°C° 0 mm 3 mps 744 mmHg 18%
    05:00 +18°C° 0 mm 3 mps 743 mmHg 19%
    06:00 +18°C° 0 mm 3 mps 744 mmHg 18%
    07:00 +19°C° 0 mm 3 mps 744 mmHg 17%
    08:00 +20°C° 0 mm 3 mps 745 mmHg 16%
    09:00 +22°C° 0 mm 3 mps 745 mmHg 16%
    10:00 +25°C° 0 mm 2 mps 744 mmHg 16%
    11:00 +27°C° 0 mm 2 mps 744 mmHg 16%
    12:00 +28°C° 0 mm 2 mps 744 mmHg 16%
    13:00 +29°C° 0 mm 2 mps 743 mmHg 15%
    14:00 +30°C° 0 mm 1 mps 742 mmHg 15%
    15:00 +29°C° 0 mm 1 mps 742 mmHg 15%
    16:00 +28°C° 0 mm 1 mps 742 mmHg 16%
    17:00 +27°C° 0 mm 2 mps 742 mmHg 16%
    18:00 +26°C° 0 mm 2 mps 742 mmHg 18%
    19:00 +25°C° 0 mm 2 mps 743 mmHg 20%
    20:00 +22°C° 0 mm 3 mps 743 mmHg 22%
    21:00 +22°C° 0 mm 3 mps 743 mmHg 23%
    22:00 +21°C° 0 mm 3 mps 743 mmHg 25%
    23:00 +21°C° 0 mm 2 mps 743 mmHg 26%

    23 January, Wednesday

    Time Temperature Precipitation Wind Pressure Humidity
    00:00 +20°C° 0 mm 3 mps 743 mmHg 26%
    01:00 +20°C° 0 mm 3 mps 742 mmHg 26%
    02:00 +20°C° 0 mm 3 mps 742 mmHg 26%
    03:00 +19°C° 0 mm 3 mps 742 mmHg 24%
    04:00 +19°C° 0 mm 3 mps 742 mmHg 21%
    05:00 +19°C° 0 mm 3 mps 742 mmHg 19%
    06:00 +19°C° 0 mm 3 mps 742 mmHg 18%
    07:00 +20°C° 0 mm 3 mps 742 mmHg 17%
    08:00 +21°C° 0 mm 3 mps 743 mmHg 16%
    09:00 +24°C° 0 mm 3 mps 742 mmHg 18%
    10:00 +26°C° 0 mm 3 mps 742 mmHg 20%
    11:00 +28°C° 0 mm 2 mps 742 mmHg 23%
    12:00 +29°C° 0 mm 2 mps 741 mmHg 21%
    13:00 +30°C° 0 mm 2 mps 741 mmHg 19%
    14:00 +31°C° 0 mm 3 mps 740 mmHg 17%
    15:00 +30°C° 0 mm 2 mps 740 mmHg 17%
    16:00 +29°C° 0 mm 2 mps 740 mmHg 18%
    17:00 +28°C° 0 mm 1 mps 739 mmHg 18%
    18:00 +26°C° 0 mm 1 mps 740 mmHg 20%
    19:00 +24°C° 0 mm 1 mps 740 mmHg 22%
    20:00 +21°C° 0 mm 0 mps 741 mmHg 25%
    21:00 +20°C° 0 mm 0 mps 741 mmHg 25%
    22:00 +20°C° 0 mm 0 mps 741 mmHg 25%
    23:00 +19°C° 0 mm 0 mps 741 mmHg 25%

    24 January, Thursday

    Time Temperature Precipitation Wind Pressure Humidity
    00:00 +19°C° 0 mm 0 mps 741 mmHg 25%
    01:00 +19°C° 0 mm 0 mps 741 mmHg 25%
    02:00 +18°C° 0 mm 0 mps 740 mmHg 25%
    03:00 +18°C° 0 mm 0 mps 740 mmHg 25%
    04:00 +18°C° 0 mm 0 mps 740 mmHg 26%
    05:00 +17°C° 0 mm 0 mps 740 mmHg 26%
    06:00 +19°C° 0 mm 0 mps 741 mmHg 24%
    07:00 +23°C° 0 mm 1 mps 741 mmHg 22%
    08:00 +25°C° 0 mm 1 mps 742 mmHg 19%
    09:00 +27°C° 0 mm 1 mps 742 mmHg 17%
    10:00 +29°C° 0 mm 2 mps 742 mmHg 14%
    11:00 +33°C° 0 mm 3 mps 742 mmHg 12%
    12:00 +34°C° 0 mm 3 mps 741 mmHg 11%
    13:00 +35°C° 0 mm 3 mps 741 mmHg 10%
    14:00 +36°C° 0 mm 3 mps 740 mmHg 9%
    15:00 +34°C° 0 mm 3 mps 740 mmHg 10%
    16:00 +32°C° 0 mm 2 mps 740 mmHg 11%
    17:00 +31°C° 0 mm 1 mps 740 mmHg 11%
    18:00 +29°C° 0 mm 1 mps 740 mmHg 13%
    19:00 +27°C° 0 mm 1 mps 741 mmHg 14%
    20:00 +23°C° 0 mm 0 mps 741 mmHg 16%
    21:00 +24°C° 0 mm 1 mps 741 mmHg 16%
    22:00 +24°C° 0 mm 1 mps 741 mmHg 17%
    23:00 +24°C° 0 mm 1 mps 741 mmHg 17%
    Show more